Hourly Data Report for July 30, 2016

TORONTO CITY
ONTARIO

43°40'00.000" N
79°24'00.000" W
112.50 m
6158355
71508
XTO

Download Data

Hourly Data (July 2016)
Hourly Data Report for July 30, 2016
TIME
LST
Temp Definition
°C
Dew Point Definition
°C
Rel Hum Definition
%
Precip. Amount Definition
mm

Wind Dir Definition
10's deg

Wind Spd Definition
km/h
Visibility Definition
km
Stn Press Definition
kPa
Hmdx Definition


Wind Chill Definition


Weather Definition


00:00 21.7 12.4 56 0.0 LegendMM LegendMM   100.26     LegendNANA
01:00 21.2 11.8 55 0.0 LegendMM LegendMM   100.29     LegendNANA
02:00 20.9 11.3 54 0.0 LegendMM LegendMM   100.28     LegendNANA
03:00 20.6 11.5 56 0.0 LegendMM LegendMM   100.30     LegendNANA
04:00 20.3 11.8 58 0.0 LegendMM LegendMM   100.29     LegendNANA
05:00 19.9 12.2 61 0.0 LegendMM LegendMM   100.28     LegendNANA
06:00 19.6 12.6 64 0.0 LegendMM LegendMM   100.40     LegendNANA
07:00 19.5 12.6 65 0.0 LegendMM LegendMM   100.42     LegendNANA
08:00 19.4 12.7 65 0.0 LegendMM LegendMM   100.44     LegendNANA
09:00 19.8 13.6 67 0.0 LegendMM LegendMM   100.43     LegendNANA
10:00 21.1 13.2 61 0.0 LegendMM LegendMM   100.44     LegendNANA
11:00 21.8 12.5 56 0.0 LegendMM LegendMM   100.45     LegendNANA
12:00 24.4 14.2 53 0.0 LegendMM LegendMM   100.42 28   LegendNANA
13:00 24.1 12.6 49 0.0 LegendMM LegendMM   100.42 27   LegendNANA
14:00 24.9 13.2 48 0.0 LegendMM LegendMM   100.36 28   LegendNANA
15:00 24.3 12.9 49 0.0 LegendMM LegendMM   100.33 27   LegendNANA
16:00 25.2 12.5 45 0.0 LegendMM LegendMM   100.29 28   LegendNANA
17:00 24.1 11.6 45 0.0 LegendMM LegendMM   100.26 26   LegendNANA
18:00 24.6 11.4 44 0.0 LegendMM LegendMM   100.27 27   LegendNANA
19:00 24.1 12.1 47 0.0 LegendMM LegendMM   100.27 26   LegendNANA
20:00 23.2 12.0 49 0.0 LegendMM LegendMM   100.29 25   LegendNANA
21:00 23.1 12.5 51 0.0 LegendMM LegendMM   100.36 26   LegendNANA
22:00 22.8 13.7 56 0.0 LegendMM LegendMM   100.36 26   LegendNANA
23:00 22.3 13.9 59 0.0 LegendMM LegendMM   100.33 26   LegendNANA

Notes on Data Quality.

Legend

  • E = Estimated
  • M = Missing
  • NA = Not Available*
  • [empty] = Indicates an unobserved value
Date modified: